Terminal Aerodrome Forecast
Issued by NWS

Home | Current Version | Previous Version | Text Only | Print | Product List | Glossary On
Versions: 1 2 3 4 5 6 7 8 9 10 11 12 13 14 15 16 17 18 19 20 21 22 23
000
FTUS43 KDLH 240540
TAFHIB
TAF
KHIB 240540Z 2406/2506 15003KT 6SM BR SCT007 OVC015
      TEMPO 2406/2408 4SM TSRA BR OVC010CB
     FM240900 VRB02KT 3SM BR VCSH SCT004 OVC007
      TEMPO 2409/2412 3/4SM BR
     FM241400 29008KT P6SM SCT015
     FM241700 30012G19KT P6SM SCT025
     FM250100 30005KT P6SM SCT100=

USA.gov is the U.S. government's official web portal to all federal, state and local government web resources and services.